CZ-6A DEB, 61111

Orbit data source: Space-Track

CZ-6A DEB, 61111 is space debris in LEO originally from a launch on Tue, 06 Aug 2024 UTC launched from the Taiyaun Space Center, China (TSC). Debris objects in space refer to the collection of defunct objects orbiting the Earth. Examples of debris include non-operational satellites, rocket bodies, and fragments generated from explosions, collisions, or faulty payload assembly.

Loading next visibility...
Identifier
61111, 2024-140PD
Orbit
LEO
Country
Flag of CNCN / PRC
Related business
Manufacturer
SAST
Mission
Spacecraft
Bus & Motor
Unknown
Mass
Unknown
Launch date (UTC)
2024-08-06 (2 years ago)
Launch vehicle
Unknown
Launch site
Taiyaun Space Center, China (TSC)
Object type
Payload
Rocket body
Debris
Shape & HBR
Unknown shape, 0.1 m
Radar Cross Section
Medium (>0.1 m² and <1 m²)

Expand to show TLE details & history
Last TLE update: 16 hours ago

TLE from 16 hours ago
0 CZ-6A DEB
1 61111U 24140PD  26171.24372885  .00000356  00000-0  11358-3 0  9992
2 61111  88.9023 264.1368 0066590   4.7204 355.4608 14.36446219 93929
Epoch: 2026-06-20T05:50Z
TLE epoch observation values (Epoch: 2026-06-20T05:50:58.172Z)
Latitude
-0.00004°
Longitude
-92.06673°
Altitude
725.881 km
Speed
7.517 km/s
True Right ascension
17h 36m 32s
True Declination
0° 00' 00"
Sunlit
Object was in full shadow at epoch
Visualization orbit readout
Latitude
Unknown
Longitude
Unknown
Altitude
Unknown
Speed
Unknown
Apparent Right ascension
Unknown
Apparent Declination
Unknown
Sunlit
N/A
Visualization observer readout
Local Sidereal Time
08:32:41
Azimuth
Unknown
Elevation
Unknown
Doppler factor
Unknown
Orbital elements
Apogee altitude
814.773 km
Perigee altitude
719.612 km
Semi-major axis
7,145.329 km
Eccentricity
0.00666
Inclination
88.9023°
RAAN
264.1368°
Arg. of periapsis
4.7204°
True anomaly
355.39991°
Mean anomaly
355.4608°
Eccentric anomaly
355.4304°
Mean motion
3.59343 °/min
Orbital period
100.18 mins
BSTAR
0.00011358
Loading maneuver chart data...
Computing Atmospheric mass density...
Loading historical data...
Loading historical data...
Loading historical data...
Loading historical data...
Loading historical data...
Loading historical data...
Loading historical data...

Documentation

Showing up to 5 results
|